Simultaneous Nadir Overpasses (SNOs) Predictions

Prediction of SNOs between AQUA and NOAA-19 Satellite Orbit:

Table of predicted SNOs for the next 14.0 days since TLE Epoch: 2/1/2014
Index Date (AQUA) Time (AQUA) Lat,Lon (AQUA) SZA (AQUA ) Date (NOAA-19) Time (NOAA-19) Lat,Lon (NOAA-19) SZA (NOAA-19 ) Distance(km) Time Diff (sec)
1 02/02/2014 17:09:31 -71.54, 101.09 91.81 02/02/2014 17:09:31 -71.53, 101.16 91.82 2.53 0
2 02/04/2014 21:54:02 -72.30, 28.70 91.66 02/04/2014 21:53:50 -72.31, 28.67 91.65 1.07 12
3 02/07/2014 02:38:18 -72.30, -42.35 92.34 02/07/2014 02:37:53 -72.28, -42.28 92.35 2.63 25
4 02/07/2014 03:27:07 70.26, 128.59 85.53 02/07/2014 03:28:20 70.26, 128.58 85.53 0.51 73
5 02/09/2014 07:22:39 -72.63,-114.04 92.68 02/09/2014 07:22:02 -72.62,-113.97 92.68 2.69 37
6 02/09/2014 08:11:34 70.88, 56.60 85.48 02/09/2014 08:12:35 70.89, 56.54 85.49 2.22 61
7 02/11/2014 12:07:05 -73.21, 173.76 92.78 02/11/2014 12:06:17 -73.22, 173.74 92.76 0.95 48
8 02/11/2014 12:55:57 71.32, -15.15 85.22 02/11/2014 12:56:46 71.33, -15.22 85.22 2.46 49
9 02/13/2014 16:51:28 -73.66, 101.78 93.03 02/13/2014 16:50:29 -73.66, 101.69 93.01 2.77 59




NCC Satellite Simultaneous Nadir Overpasses (SNOs) Prediction Service
